MID SUPERIOR 60NM North Northeast Hancock, MI (45001)

Conditions for Thursday

Daily
Weekly
Monthly
Marine Data Graph

Marine & Boating Location Search

Enter a coastal zip code for marine weather.

General Information

Location: 48.061 North -87.793 West
Buoy Type: 3-meter discus buoy
Buoy Hull: 3D33
Payload: AMPS payload
Owned by: NDBC
Windspeed: Measured by obtained from anemometer
Sea Surface: Measured by Intake

Weather and Wave Data

Time Temp Humidity Wind Dominant Wave Wind Wave Wave Swell Pressure
  Air
(°F)
Water
(°F)
  Dir Speed
(kts)
Speed
(mph)
Period
(sec)
Height
(ft)
Range
(ft)
Period
(sec)
Height
(ft)
Range
(ft)
Period
(sec)
Height
(ft)
Range
(ft)
Atmo.
(in)
Tend.
(in)
20:10 46 39 90 East 9.7 11.2 - - - - - - 29.92 -
20:20 46 39 91 ESE 9.7 11.2 - - - - - - 29.92 -
20:30 46 39 90 ESE 9.7 11.2 - - - - - - 29.91 -
20:40 46 39 89 ESE 9.7 11.2 - - - - - - 29.91 -
20:50 47 39 85 ESE 9.7 11.2 0.66 exactly 0.7 - - - - - - 29.91 -
21:10 46 39 87 ESE 9.7 11.2 - - - - - - 29.90 -
21:20 46 39 87 ESE 9.7 11.2 - - - - - - 29.89 -
21:30 46 39 87 ESE 9.7 11.2 - - - - - - 29.88 -
21:40 47 39 85 ESE 11.7 13.4 - - - - - - 29.88 -
21:50 47 39 86 ESE 9.7 11.2 3 0.98 exactly 1.0 - - - - - - 29.87 -
22:00 47 39 85 ESE 9.7 11.2 - - - - - - 29.87 -
22:20 47 39 83 ESE 9.7 11.2 - - - - - - 29.87 -
22:30 47 39 83 ESE 11.7 13.4 - - - - - - 29.86 -
22:40 47 39 83 ESE 11.7 13.4 - - - - - - 29.86 -
22:50 47 39 84 ESE 11.7 13.4 3 0.98 exactly 1.0 3 1.64 0.82 - 2.46 - - - 29.86 -
23:10 47 39 85 ESE 13.6 15.7 - - - - - - 29.85 -
23:20 47 39 84 SE 13.6 15.7 - - - - - - 29.84 -
23:50 46 39 87 SE 13.6 15.7 3 1.31 exactly 1.3 3 1.64 0.82 - 2.46 - - - 29.83 -
00:00 47 39 85 SE 15.6 17.9 - - - - - - 29.83 -
00:20 46 39 87 SE 13.6 15.7 - - - - - - 29.82 -
00:30 47 39 83 SE 13.6 15.7 - - - - - - 29.82 -
00:40 47 39 85 SE 15.6 17.9 - - - - - - 29.80 -
00:50 48 39 82 SE 15.6 17.9 3 1.97 exactly 2.0 3 1.64 0.82 - 2.46 - - - 29.81 -
01:00 49 39 82 SE 17.5 20.1 - - - - - - 29.78 -
01:10 49 39 80 SE 17.5 20.1 - - - - - - 29.80 -
01:20 49 39 82 SE 19.4 22.4 - - - - - - 29.79 -
01:30 49 39 85 SE 19.4 22.4 - - - - - - 29.79 -
01:50 49 39 87 SSE 17.5 20.1 4 2.30 exactly 2.3 4 1.64 0.82 - 2.46 - - - 29.78 -
02:10 49 39 87 SSE 13.6 15.7 - - - - - - 29.78 -
02:20 49 39 86 SE 17.5 20.1 - - - - - - 29.76 -
02:30 49 39 84 SSE 13.6 15.7 - - - - - - 29.77 -
02:40 48 39 88 South 11.7 13.4 - - - - - - 29.79 -
02:50 48 39 89 NNE 5.8 6.7 4 2.95 exactly 3.0 4 3.28 2.46 - 4.10 - - - 29.80 -
03:00 50 39 89 NE 5.8 6.7 - - - - - - 29.78 -
03:10 56 39 83 SSE 19.4 22.4 - - - - - - 29.75 -
03:20 56 39 85 SSE 21.4 24.6 - - - - - - 29.76 -
03:30 55 39 80 SE 13.6 15.7 - - - - - - 29.76 -
03:40 53 39 83 NNW 11.7 13.4 - - - - - - 29.81 -
03:50 57 39 79 East 3.9 4.5 4 2.62 exactly 2.6 4 3.28 2.46 - 4.10 - - - 29.76 -
04:00 57 39 76 South 9.7 11.2 - - - - - - 29.78 -
04:10 54 39 82 SSW 7.8 8.9 - - - - - - 29.77 -
04:30 53 39 84 SSE 7.8 8.9 - - - - - - 29.74 -
04:40 51 39 88 SE 7.8 8.9 - - - - - - 29.75 -
04:50 50 39 90 ESE 5.8 6.7 4 2.62 exactly 2.6 4 1.64 0.82 - 2.46 4 1.64 0.82 - 2.46 29.76 -
05:10 51 39 91 SE 9.7 11.2 - - - - - - 29.75 -
05:20 49 39 92 SE 9.7 11.2 - - - - - - 29.74 -
05:30 48 39 93 SE 9.7 11.2 - - - - - - 29.74 -
05:40 47 39 96 SE 9.7 11.2 - - - - - - 29.73 -
05:50 47 39 96 SE 7.8 8.9 5 2.30 exactly 2.3 5 1.64 0.82 - 2.46 8 1.64 0.82 - 2.46 29.73 -
06:10 46 39 94 East 7.8 8.9 - - - - - - 29.71 -
06:20 46 39 92 ENE 7.8 8.9 - - - - - - 29.73 -
06:30 46 39 95 East 7.8 8.9 - - - - - - 29.72 -
06:40 46 39 94 East 7.8 8.9 - - - - - - 29.72 -
06:50 45 39 93 East 7.8 8.9 4 1.97 exactly 2.0 4 1.64 0.82 - 2.46 4 1.64 0.82 - 2.46 29.72 -
07:10 45 39 93 East 7.8 8.9 - - - - - - 29.73 -
07:20 44 39 96 ESE 7.8 8.9 - - - - - - 29.74 -
07:30 44 39 97 ESE 7.8 8.9 - - - - - - 29.73 -
07:40 45 39 94 ESE 7.8 8.9 - - - - - - 29.72 -
07:50 45 39 98 SE 7.8 8.9 5 1.97 exactly 2.0 4 1.64 0.82 - 2.46 5 1.64 0.82 - 2.46 29.71 -
08:20 46 39 96 SE 9.7 11.2 - - - - - - 29.71 -
08:30 46 39 95 SSE 7.8 8.9 - - - - - - 29.72 -
08:40 45 39 97 SSE 5.8 6.7 - - - - - - 29.72 -
08:50 45 39 99 SSE 5.8 6.7 4 1.64 exactly 1.6 4 1.64 0.82 - 2.46 4 1.64 0.82 - 2.46 29.71 -
09:10 46 39 96 South 5.8 6.7 - - - - - - 29.71 -
09:20 46 39 96 South 3.9 4.5 - - - - - - 29.70 -
09:30 47 39 98 South 3.9 4.5 - - - - - - 29.70 -
09:40 47 39 95 South 5.8 6.7 - - - - - - 29.70 -
09:50 46 39 99 South 5.8 6.7 4 1.64 exactly 1.6 4 1.64 0.82 - 2.46 4 1.64 0.82 - 2.46 29.70 -
10:00 46 39 99 South 5.8 6.7 - - - - - - 29.70 -
10:10 49 39 99 SSW 5.8 6.7 - - - - - - 29.69 -
10:20 48 39 97 South 5.8 6.7 - - - - - - 29.70 -
10:30 47 39 100 South 5.8 6.7 - - - - - - 29.69 -
10:40 47 39 96 South 5.8 6.7 - - - - - - 29.69 -
11:00 47 39 95 South 5.8 6.7 - - - - - - 29.69 -
11:10 48 39 97 South 9.7 11.2 - - - - - - 29.69 -
11:30 45 39 99 South 5.8 6.7 - - - - - - 29.69 -
11:40 45 39 97 South 5.8 6.7 - - - - - - 29.69 -
12:00 46
-
97 South 5.8 6.7 - - - - - - 29.70 -
12:10 46 39 98 SW 3.9 4.5 - - - - - - 29.70 -
12:20 46 39 100 SSW 5.8 6.7 - - - - - - 29.70 -
12:30 46 39 95 SSW 7.8 8.9 - - - - - - 29.70 -
12:40 47 39 97 WSW 7.8 8.9 - - - - - - 29.70 -
12:50 47 39 98 WSW 5.8 6.7 4 1.64 exactly 1.6 4 1.64 0.82 - 2.46 - - - 29.69 -
13:10 48 39 100 West 5.8 6.7 - - - - - - 29.68 -
13:20 49 39 96 West 7.8 8.9 - - - - - - 29.67 -
13:40 47 39 97 West 5.8 6.7 - - - - - - 29.67 -
13:50 46 39 98 West 7.8 8.9 4 1.31 exactly 1.3 4 1.64 0.82 - 2.46 - - - 29.67 -
14:00 46 39 95 West 5.8 6.7 - - - - - - 29.66 -
14:10 45 39 99 West 5.8 6.7 - - - - - - 29.65 -
14:20 46 39 98 WNW 5.8 6.7 - - - - - - 29.65 -
14:30 46 39 97 WNW 3.9 4.5 - - - - - - 29.65 -
14:40 46 39 96 SSW 3.9 4.5 - - - - - - 29.65 -
14:50 47 39 96 South 9.7 11.2 4 1.31 exactly 1.3 4 1.64 0.82 - 2.46 - - - 29.66 -
15:20 46 39 96 WSW 5.8 6.7 - - - - - - 29.66 -
15:30 46 39 96 SW 5.8 6.7 - - - - - - 29.66 -
16:10 47 39 98 WSW 5.8 6.7 - - - - - - 29.65 -
16:20 47 39 98 West 9.7 11.2 - - - - - - 29.65 -
16:30 46 39 97 WNW 3.9 4.5 - - - - - - 29.65 -
16:40 47 39 96 WNW 1.9 2.2 - - - - - - 29.64 -
16:50 47 39 100 SSE 1.9 2.2 4 1.31 exactly 1.3 4 1.64 0.82 - 2.46 - - - 29.63 -
17:00 49
-
100 West 3.9 4.5 - - - - - - 29.62 -
17:10 48 39 100 WNW 3.9 4.5 - - - - - - 29.62 -
17:20 47 39 97 NW 3.9 4.5 - - - - - - 29.62 -
17:30 48 40 99 West 3.9 4.5 - - - - - - 29.63 -
18:10 51 40 99 WSW 7.8 8.9 - - - - - - 29.62 -
18:20 50 40 100 SW 7.8 8.9 - - - - - - 29.62 -
18:30 49 40 94 SW 7.8 8.9 - - - - - - 29.62 -
18:40 49 40 95 SW 5.8 6.7 - - - - - - 29.62 -
18:50 49 40 97 SW 5.8 6.7 4 1.31 exactly 1.3 4 1.64 0.82 - 2.46 - - - 29.62 -
19:10 47 40 95 SSE 5.8 6.7 - - - - - - 29.62 -
19:30 49 40 98 ESE 3.9 4.5 - - - - - - 29.62 -
19:40 50 40 96 SSW 3.9 4.5 - - - - - - 29.62 -
19:50 47 40 95 East 3.9 4.5 4 1.31 exactly 1.3 4 1.64 0.82 - 2.46 4 1.64 0.82 - 2.46 29.62 -
20:10 46 40 96 East 3.9 4.5 - - - - - - 29.62 -
20:20 45 40 98 ENE 3.9 4.5 - - - - - - 29.62 -
20:30 44 40 97 NE 3.9 4.5 - - - - - - 29.63 -
20:40 44 40 98 East 3.9 4.5 - - - - - - 29.62 -
20:50 45
-
97 ENE 3.9 4.5 4 1.31 exactly 1.3 4 1.64 0.82 - 2.46 - - - 29.63 -
21:10 46 40 96 East 3.9 4.5 - - - - - - 29.63 -
21:20 45 40 100 ESE 3.9 4.5 - - - - - - 29.63 -
21:30 47 40 100 SE 3.9 4.5 - - - - - - 29.63 -
21:40 46 40 100 SE 3.9 4.5 - - - - - - 29.63 -
21:50 45 40 97 ESE 3.9 4.5 5 1.31 exactly 1.3 4 1.64 0.82 - 2.46 - - - 29.63 -
22:10 48 39 99 SE 3.9 4.5 - - - - - - 29.62 -
22:20 47 39 100 SE 3.9 4.5 - - - - - - 29.62 -
22:30 45 39 98 SE 5.8 6.7 - - - - - - 29.63 -
22:40 45 39 97 SE 5.8 6.7 - - - - - - 29.63 -
23:00 45 39 96 SE 5.8 6.7 - - - - - - 29.63 -
23:10 44 39 99 SSE 5.8 6.7 - - - - - - 29.62 -
23:20 44 39 97 SSE 5.8 6.7 - - - - - - 29.62 -
23:40 44 39 97 SE 3.9 4.5 - - - - - - 29.63 -
23:50 44 39 96 SSE 3.9 4.5 4 0.98 exactly 1.0 4 1.64 0.82 - 2.46 - - - 29.64 -
00:10 44 39 97 SSE 5.8 6.7 - - - - - - 29.63 -
00:20 45 39 100 SSE 5.8 6.7 - - - - - - 29.63 -
00:30 47 39 97 SSE 7.8 8.9 - - - - - - 29.62 -
00:40 47 39 98 South 7.8 8.9 - - - - - - 29.62 -
01:10 48 39 99 WSW 9.7 11.2 - - - - - - 29.62 -
01:20 51 39 97 SW 11.7 13.4 - - - - - - 29.61 -
01:30 49 39 97 SSW 9.7 11.2 - - - - - - 29.62 -
01:40 47 39 97 SSW 7.8 8.9 - - - - - - 29.62 -
01:50 46 39 98 SW 7.8 8.9 5 0.98 exactly 1.0 - - - - - - 29.62 -
02:10 46 39 98 West 5.8 6.7 - - - - - - 29.62 -
02:20 47 39 99 West 5.8 6.7 - - - - - - 29.61 -
02:40 46 39 98 West 3.9 4.5 - - - - - - 29.62 -
03:10 46 39 97 WSW 5.8 6.7 - - - - - - 29.62 -
03:30 45 39 98 SW 7.8 8.9 - - - - - - 29.62 -
03:40 45 39 97 SW 7.8 8.9 - - - - - - 29.62 -
03:50 45 39 97 WSW 5.8 6.7 4 0.98 exactly 1.0 - - - - - - 29.62 -

Detailed Wave Spectra

Time Water Depth Wave Height Spectral Peak Period Average Wave Period Sampling Interval Wave Record
20:00 810 ft 0.62 ft 2.4 sec 0.6 sec 2400 sec
21:00 810 ft 0.72 ft 2.5 sec 0.6 sec 2400 sec
23:00 810 ft 0.92 ft 2.7 sec 2.6 sec 0.6 sec 2400 sec
02:00 810 ft 2.43 ft 3.7 sec 3.2 sec 0.6 sec 2400 sec
05:00 810 ft 2.53 ft 4.2 sec 3.8 sec 0.6 sec 2400 sec
06:00 810 ft 2.20 ft 4.5 sec 3.7 sec 0.6 sec 2400 sec
07:00 810 ft 2.10 ft 4.3 sec 3.7 sec 0.6 sec 2400 sec
08:00 810 ft 1.87 ft 4.5 sec 3.6 sec 0.6 sec 2400 sec
09:00 810 ft 1.77 ft 4.3 sec 3.6 sec 0.6 sec 2400 sec
13:00 810 ft 1.61 ft 4.0 sec 3.4 sec 0.6 sec 2400 sec
15:00 810 ft 1.38 ft 3.6 sec 3.4 sec 0.6 sec 2400 sec
16:00 810 ft 1.35 ft 3.8 sec 3.4 sec 0.6 sec 2400 sec
18:00 810 ft 1.31 ft 3.7 sec 3.3 sec 0.6 sec 2400 sec
19:00 810 ft 1.28 ft 3.8 sec 3.3 sec 0.6 sec 2400 sec
20:00 810 ft 1.28 ft 4.3 sec 3.5 sec 0.6 sec 2400 sec
21:00 810 ft 1.25 ft 4.2 sec 3.6 sec 0.6 sec 2400 sec
22:00 810 ft 1.21 ft 4.5 sec 3.5 sec 0.6 sec 2400 sec
00:00 810 ft 1.08 ft 3.8 sec 3.4 sec 0.6 sec 2400 sec
01:00 810 ft 0.98 ft 3.7 sec 3.4 sec 0.6 sec 2400 sec
02:00 810 ft 1.02 ft 4.5 sec 3.5 sec 0.6 sec 2400 sec
03:00 810 ft 1.05 ft 4.3 sec 3.0 sec 0.6 sec 2400 sec